FREGAT DEB, 45614

Orbit data source: Space-Track

FREGAT DEB, 45614 is space debris in LEO originally from a launch on Mon, 18 Jul 2011 UTC launched from the Tyuratam Missile And Space Complex (TTMTR). Debris objects in space refer to the collection of defunct objects orbiting the Earth. Examples of debris include non-operational satellites, rocket bodies, and fragments generated from explosions, collisions, or faulty payload assembly.

Loading next visibility...
FREGAT DEB details
Identifier
45614, 2011-037H
Orbit
LEO
Last TLE update18 hours ago
Origin
Flag of CISVVKO VKS (CIS)
ManufacturerLavochkin
MissionSpacecraft
Bus & MotorUnknown
MassUnknown
Launch date (UTC)
2011-07-18 (13 years ago)
Launch vehicleUnknown
Launch site
Tyuratam Missile And Space Complex (TTMTR)
Object type
Payload
Rocket body
Debris
Shape & HBRUnknown
Radar Cross SectionMedium (>0.1 m² and <1 m²)

Expand to show TLE details & history

TLE from 18 hours ago
0 FREGAT DEB
1 45614U 11037H   24339.71260469  .00085628  00000-0  49285-1 0  9996
2 45614  51.2357 130.4106 0670598 300.4297  53.1970 13.31565260197622
Epoch: 2024-12-04T17:06Z
Definitive object data (Epoch: 2024-12-04T17:06:09.045Z)
Latitude-0.00002°
Longitude159.86908°
Altitude862.47 km
Speed7.559 km/s
True Right ascension08h 41m 38s
True Declination0° 00' 00"
Sunlit
Object was in full shadow at TLE epoch
Visualization TLE readout
Latitude-33.99246°
Longitude124.6602°
Altitude656.833 km
Speed7.773 km/s
Apparent Right ascension02h 33m 53s
Apparent Declination-65° 38' 27"
Sunlit
Object is in full shadow
Visualization observer readout
Local Sidereal Time08:53:10
Azimuth211.282° SW
Elevation-37.672°
Doppler factor1
Orbital elements
Apogee altitude1,645.647 km
Perigee altitude637.131 km
Semi-major axis7,519.526 km
Eccentricity0.0670598
Inclination51.2357°
RAAN130.4106°
Arg. of periapsis300.4297°
True anomaly59.66073°
Mean anomaly53.197°
Eccentric anomaly56.39718°
Mean motion3.32857 °/min
BSTAR0.049285
Orbital period108.15 mins
Loading maneuver chart data...
Loading historical data...
Loading historical data...
Loading historical data...
Loading historical data...
Loading historical data...
Loading historical data...
Loading historical data...

FREGAT DEB Visibility forecast

Observer location: undefined°, undefined

Span
Click to sort rows by Start time (UTC) header in descending order
Start Az.
Max El. time (UTC)
Max El. Az.
Max El.
End time (UTC)
End Az.
9 mins2024-12-05 11:14:42.888Z159.941° S2024-12-05 11:18:42.888Z119.805° SE20.603°2024-12-05 11:23:42.888Z78.003° E
14 mins2024-12-05 13:05:42.888Z227.16° WSW2024-12-05 13:10:42.888Z177.778° S44.786°2024-12-05 13:19:42.888Z54.61° ENE
16 mins2024-12-05 14:58:42.888Z275.362° WNW2024-12-05 15:05:42.888Z350.531° N36.405°2024-12-05 15:14:42.888Z56.854° ENE
16 mins2024-12-05 16:53:42.888Z302.792° NW2024-12-05 17:00:42.888Z3.77° NNE34.424°2024-12-05 17:09:42.888Z75.593° E
18 mins2024-12-05 18:47:42.888Z308.135° NW2024-12-05 18:56:42.888Z45° ENE43.075°2024-12-05 19:05:42.888Z113.163° SE
17 mins2024-12-05 20:41:42.888Z297.646° NW2024-12-05 20:49:42.888Z236.565° WSW37.349°2024-12-05 20:58:42.888Z159.821° S
4 mins2024-12-05 22:40:42.888Z254.581° W2024-12-05 22:41:42.888Z248.469° W11.422°2024-12-05 22:44:42.888Z230.009° WSW
6 mins2024-12-06 10:40:42.888Z139.439° SSE2024-12-06 10:42:42.888Z120.454° SE15.445°2024-12-06 10:46:42.888Z87.031° E
|